Dewpoint
71 72 74 75 75 75 73 72 73 73 73 72 73 74 73 73 74 74 74 74 73 70 71 69 71 72 70 70 70 72 72 73 73 72 72 71 72 72 75 75 75 74 74 74 73 73 73 73 73 72 72 73 73 73 73 73 73 73 73 73 73 72 72 72 72 72 72 72 72 72 72 72 72 73 72 72 73 73 73 73 73 73 73 73 72
72 73 73 74 74 72 72 72 71 72 72 73 74 74 73 73 73 74 73 73 73 73 72 67 65 67 70 69 69 67 72 72 73 72 73 72 72 71 75 75 75 75 75 75 74 74 74 74 74 73 73 73 72 72 73 73 73 73 73 72 72 72 73 73 73 73 73 73 73 73 73 73 73 72 73 73 73 73 73 73 73 73 73 73 73
72 73 74 72 73 73 72 72 71 72 74 73 74 74 73 73 73 74 75 74 73 71 71 68 69 67 68 67 68 70 70 72 70 71 69 73 72 72 72 75 76 75 75 75 75 75 75 75 75 75 75 75 75 75 75 75 75 75 75 74 74 74 74 74 74 73 73 73 74 73 73 73 74 74 74 73 73 73 73 73 73 73 74 73 73
75 74 74 74 71 71 72 72 72 73 74 74 74 74 74 74 75 77 77 76 73 72 72 67 67 66 69 67 68 69 69 70 68 68 70 72 74 73 72 71 75 75 76 76 76 76 76 76 76 76 76 76 76 76 76 76 76 76 76 76 76 76 76 75 75 74 74 75 75 75 75 74 74 74 74 74 74 74 74 74 74 74 74 74 74
76 75 74 73 73 72 71 73 74 75 75 75 75 76 75 74 74 74 74 73 71 70 70 67 66 68 67 66 67 68 70 70 71 70 68 70 73 72 72 72 72 74 76 76 76 76 77 77 77 77 77 77 77 77 77 77 77 77 77 77 77 77 76 76 76 76 76 76 76 76 75 76 76 76 76 76 75 75 75 75 75 75 75 74 74
76 76 74 71 72 73 73 73 75 76 76 76 73 74 73 73 73 73 73 72 69 70 68 66 66 68 68 68 69 70 70 68 69 69 70 69 71 73 72 73 73 73 73 75 75 76 76 77 77 77 77 77 77 77 77 77 77 77 77 77 77 77 77 77 77 77 77 77 77 77 77 77 77 76 76 75 75 76 76 75 75 75 75 75 75
76 76 74 72 70 71 73 73 76 76 74 75 75 74 74 73 73 72 72 71 69 71 69 68 67 67 70 70 69 69 71 68 70 70 69 71 72 70 73 73 72 73 73 72 76 75 75 76 76 76 76 77 77 78 77 77 77 77 77 77 77 78 78 78 78 78 78 78 78 78 78 77 76 76 76 76 76 76 76 76 76 76 75 75 75
76 75 73 72 72 72 73 76 77 76 75 76 76 74 74 74 74 73 72 67 70 67 70 70 68 66 68 70 70 71 70 70 69 68 67 71 71 71 72 73 74 73 74 72 73 75 76 75 76 76 76 76 77 77 77 77 77 77 77 77 77 77 77 78 78 78 78 78 78 78 78 77 77 77 77 77 77 77 76 76 76 76 76 76 76
76 76 75 73 72 73 72 75 76 76 75 75 74 74 74 70 76 76 75 73 67 64 67 69 67 66 66 65 67 71 70 71 69 69 68 71 71 68 69 71 74 73 75 74 75 74 75 75 74 75 76 75 76 75 76 76 77 78 78 78 78 78 79 79 78 78 77 77 78 78 77 77 78 78 77 77 77 77 77 77 77 76 76 76 76
76 77 76 75 74 74 74 76 76 75 75 74 74 73 75 73 74 76 74 73 69 66 65 66 63 63 65 64 69 68 70 71 72 72 71 71 72 71 70 69 70 69 70 71 70 73 73 74 75 75 76 76 75 75 75 76 76 77 77 77 77 78 78 79 79 79 79 79 79 79 79 78 78 77 77 77 77 77 77 76 76 76 76 76 76
76 77 77 75 74 74 74 76 76 76 75 74 73 75 75 74 73 74 76 74 72 71 69 70 64 63 62 64 65 70 71 69 71 71 69 66 66 69 67 72 70 71 74 73 71 73 75 75 74 75 75 76 75 75 76 76 76 76 76 76 77 78 79 79 79 79 79 79 79 78 77 77 77 77 77 77 77 77 76 76 76 75 75 74 72
76 77 77 76 75 74 75 75 76 75 75 74 74 74 76 75 74 73 73 72 73 73 70 69 66 66 66 67 67 68 69 68 69 69 69 69 69 70 66 66 70 70 68 70 71 69 73 75 76 74 74 74 75 75 75 75 75 76 76 77 78 79 79 79 79 79 79 79 78 77 77 77 77 77 77 77 77 76 76 75 74 72 72 71 71
76 77 77 77 76 75 76 76 75 75 75 75 75 75 76 76 75 77 71 71 68 69 68 70 68 66 69 66 67 69 67 70 68 66 66 66 67 69 69 69 69 70 72 70 71 70 70 74 74 75 76 77 76 76 75 76 76 76 77 78 79 79 80 80 79 78 78 78 78 78 77 77 77 77 77 77 76 76 75 73 73 72 72 71 71
77 78 78 77 76 74 76 75 76 76 76 76 76 76 75 75 75 73 74 70 69 68 68 70 66 65 65 65 64 66 69 66 63 62 64 64 65 68 69 66 63 64 68 70 72 72 69 70 74 72 75 76 76 76 78 76 76 76 77 77 78 80 79 79 78 78 78 78 78 78 78 77 77 77 77 76 75 74 73 73 73 72 71 70 70
78 78 77 76 76 75 75 76 76 76 75 74 75 75 75 74 75 74 70 70 71 70 73 71 64 67 69 69 63 65 66 67 64 64 63 63 64 63 65 63 63 65 68 69 70 72 68 70 72 74 75 76 75 76 76 77 76 77 77 78 79 79 79 77 77 78 78 79 78 78 78 77 77 77 77 76 74 73 73 73 72 71 70 69 69
77 76 76 76 76 75 74 74 77 76 75 75 75 74 74 74 73 73 74 67 65 67 71 73 71 68 65 65 64 64 60 64 65 64 63 63 62 62 64 64 64 68 70 70 63 68 71 72 71 74 76 76 76 76 76 75 76 78 79 80 78 77 78 77 77 77 78 79 78 78 78 77 76 77 76 76 74 74 73 72 71 70 70 69 69
78 77 76 76 77 77 75 75 75 76 75 74 74 73 73 74 75 75 73 70 66 67 70 69 72 73 70 68 65 63 63 62 61 65 62 61 62 62 66 65 61 68 66 65 67 68 64 65 73 73 75 76 76 75 75 75 76 78 79 79 78 77 77 77 76 77 78 78 78 78 78 77 77 76 75 75 75 73 73 72 71 70 69 68 68
77 77 76 76 77 77 76 75 75 76 76 74 74 74 73 73 74 74 72 74 73 68 66 71 71 74 73 69 69 65 65 66 63 64 71 64 63 62 64 62 62 64 70 67 64 63 67 66 71 72 73 73 74 75 74 75 78 78 79 80 79 77 77 76 76 77 77 78 78 78 77 77 77 76 76 75 74 73 72 71 71 70 70 68 68
75 76 77 77 77 77 77 76 75 76 76 75 74 71 70 72 74 74 73 75 75 71 70 66 71 70 68 68 69 68 66 66 65 66 63 67 64 62 62 63 62 62 61 61 61 63 67 69 64 65 70 74 74 73 75 74 77 78 79 80 77 77 77 76 76 77 77 78 78 78 78 77 77 76 76 75 73 72 71 70 71 70 70 68 68
75 77 76 76 77 77 77 76 76 75 75 74 73 72 73 75 76 77 78 76 75 72 71 68 68 69 70 69 68 70 71 68 66 65 66 65 64 63 62 63 64 63 64 62 61 63 66 70 64 66 69 73 74 73 74 75 76 76 76 75 77 77 77 76 76 76 77 78 78 77 78 78 77 76 76 73 72 71 71 70 70 70 69 68 67
77 76 76 76 76 77 77 77 75 74 75 74 73 72 74 74 76 77 76 76 75 75 74 73 69 68 71 72 70 68 67 67 70 70 66 65 61 63 65 65 64 64 67 64 62 63 64 65 68 67 72 73 74 75 73 75 74 77 76 75 77 78 77 77 76 76 77 78 77 77 77 78 78 76 75 73 72 72 71 70 70 70 69 68 67
76 77 77 76 76 77 76 75 75 73 74 74 74 74 75 75 75 74 75 75 76 75 72 73 72 71 71 73 72 71 70 68 66 66 66 68 64 62 63 63 64 66 67 64 64 64 65 65 65 65 69 73 74 74 75 76 77 72 73 76 77 77 76 76 76 77 77 77 77 77 77 77 77 77 74 72 72 72 71 70 70 70 68 67 67
74 76 76 75 76 77 76 75 75 75 75 75 74 72 72 72 73 76 76 75 74 75 74 75 74 74 71 73 71 68 70 69 70 70 68 67 66 63 61 63 62 63 67 68 69 65 68 67 65 66 73 72 74 74 76 76 76 74 76 76 76 77 76 75 76 76 76 75 76 77 77 77 77 77 75 72 71 73 71 70 70 69 68 67 67
76 74 75 74 76 77 77 76 76 76 75 75 75 74 73 73 73 75 76 76 76 75 73 73 71 73 71 69 69 68 70 70 68 70 71 70 68 66 65 67 67 64 64 70 67 67 68 68 68 70 71 73 75 77 77 77 77 77 77 75 75 75 75 75 75 75 75 75 75 75 76 76 76 76 76 73 72 72 72 70 69 69 68 66 66
75 74 74 75 77 78 77 77 77 77 77 76 76 77 76 74 74 73 74 75 74 75 73 72 71 71 68 69 69 68 69 70 70 68 69 71 70 68 64 65 65 64 66 67 68 67 68 69 71 71 72 73 74 77 75 73 74 76 77 75 75 75 75 75 75 74 74 74 74 74 74 75 76 75 75 74 74 73 73 71 69 68 67 66 65
73 74 74 74 75 76 77 77 78 78 78 78 77 77 77 75 74 75 73 75 75 75 75 73 74 73 72 70 69 68 69 69 69 69 67 67 67 66 69 68 65 63 68 69 70 66 67 70 70 73 71 72 73 74 75 72 71 76 77 77 75 74 74 74 74 74 74 74 74 74 75 75 76 76 76 75 74 74 73 72 69 68 67 65 64
74 75 76 76 76 77 77 77 77 78 78 78 76 77 77 76 76 76 75 74 75 74 73 72 71 72 73 73 72 69 70 71 68 68 68 67 67 67 69 67 64 63 64 68 67 68 65 69 68 69 72 76 75 76 75 72 73 76 77 76 75 74 74 73 73 73 73 73 73 74 74 75 75 75 75 75 75 74 73 72 70 68 67 65 63
76 76 75 76 76 76 77 76 78 77 78 77 77 76 77 76 76 76 75 73 75 74 74 73 72 73 73 75 74 70 71 70 70 69 69 70 70 71 71 70 68 65 66 66 65 65 66 66 67 69 71 73 75 74 76 74 71 76 77 76 77 77 74 73 73 73 72 71 72 73 73 73 74 75 75 75 75 75 74 73 71 69 67 65 63
74 75 75 77 77 76 76 75 77 78 77 78 77 77 77 76 74 76 75 74 76 75 74 73 73 71 72 73 73 73 73 75 73 71 74 76 72 72 70 70 71 69 67 66 69 64 66 65 65 70 72 74 76 74 74 74 73 74 73 76 76 77 73 71 72 72 72 72 72 72 72 72 73 74 75 75 75 75 75 73 71 69 68 66 64
73 72 75 75 77 77 77 77 76 76 76 76 77 77 78 76 76 76 75 76 76 76 75 74 73 73 72 72 73 72 74 73 71 71 75 76 72 71 71 72 72 70 69 68 68 68 66 66 65 66 72 74 71 71 71 73 75 73 74 75 74 74 72 71 72 71 71 71 71 71 71 72 72 73 73 73 73 73 74 73 72 70 69 66 65
76 76 76 75 76 76 78 76 77 77 77 76 78 77 78 76 76 74 75 76 76 76 76 75 73 74 74 73 74 73 75 74 74 72 74 75 73 72 72 73 73 72 72 71 68 70 68 68 67 67 68 72 70 70 70 71 72 72 74 76 76 74 73 75 72 71 70 70 70 70 70 70 70 70 70 71 71 72 73 73 72 70 69 67 65
74 75 75 75 75 74 74 74 74 75 75 75 75 77 77 76 75 73 74 76 75 75 74 74 72 73 74 74 74 75 75 75 75 74 74 75 75 73 73 73 74 73 74 72 71 70 70 67 68 68 68 70 74 73 71 70 71 74 76 77 78 75 73 68 70 71 70 70 69 69 69 69 68 68 69 70 71 71 72 73 72 71 70 68 66
74 74 75 76 76 75 74 75 73 75 77 76 76 77 77 77 77 76 76 76 76 75 76 75 75 75 76 75 74 75 76 75 74 73 73 73 74 73 74 73 71 73 73 73 71 71 72 73 71 69 70 72 69 74 72 69 69 72 73 74 77 73 71 70 70 69 70 69 68 68 68 68 68 68 69 69 70 71 72 72 72 71 70 68 66
74 73 74 73 75 75 74 75 76 75 77 78 76 76 76 76 75 73 74 77 76 76 76 76 75 75 75 76 75 74 75 75 74 72 72 71 72 71 72 72 71 71 75 73 71 71 71 72 71 71 70 72 70 73 73 71 71 74 72 73 70 69 71 71 70 66 69 69 68 68 68 67 67 67 68 69 69 70 70 70 70 69 69 68 66
74 74 73 73 76 76 75 75 77 76 77 76 76 76 76 76 75 73 72 75 75 74 74 75 74 75 74 75 73 73 72 72 73 72 72 72 72 72 72 72 72 71 73 75 73 72 71 71 73 70 70 72 72 72 74 72 75 75 75 72 69 68 69 70 70 64 68 68 67 67 67 67 67 67 67 67 68 68 68 68 67 67 67 66 64
71 74 74 74 75 77 75 76 76 76 76 76 75 76 76 76 76 76 75 75 75 74 74 73 73 74 73 74 73 73 73 74 74 73 73 73 73 73 73 73 74 73 74 75 75 74 73 71 73 72 71 72 72 72 72 73 72 73 73 74 72 71 69 68 67 66 66 67 67 67 67 67 67 67 67 67 66 65 66 65 65 65 64 64 63
71 72 75 75 76 76 73 74 75 76 75 75 76 75 75 75 76 74 74 76 75 75 75 75 75 75 75 73 72 73 74 74 73 72 71 73 72 72 71 72 73 72 73 74 75 75 74 72 71 73 75 74 74 75 75 72 72 72 74 75 73 72 73 68 64 63 67 67 68 68 67 67 68 68 68 67 66 65 65 65 64 63 63 62 61
72 71 72 73 73 75 75 74 75 75 76 76 76 76 74 74 75 75 75 76 75 75 75 74 75 74 73 74 74 73 73 73 71 72 73 73 72 71 72 72 72 73 75 74 76 75 74 73 74 72 74 71 73 73 75 74 71 70 72 72 72 74 74 71 67 65 65 65 65 65 66 68 67 68 68 68 66 65 65 64 65 64 62 60 59
71 70 70 72 73 73 74 74 73 74 75 74 76 76 75 75 75 75 74 75 75 75 74 73 72 73 73 73 74 74 74 74 72 72 72 72 72 72 73 74 73 73 72 72 73 73 73 73 72 73 73 72 73 71 73 75 74 73 72 70 70 71 74 75 73 70 67 66 67 68 68 68 69 68 67 66 65 66 65 64 64 63 62 60 58
70 70 69 70 71 72 72 73 73 74 75 74 76 76 75 75 74 74 75 74 73 73 73 74 73 71 72 72 70 71 73 74 74 73 73 72 73 73 73 74 74 74 73 71 73 72 72 71 71 70 71 73 73 73 73 75 74 74 74 71 70 70 71 74 74 72 72 72 68 64 67 68 68 68 67 66 66 66 65 65 66 66 65 62 60
70 70 70 70 70 71 71 72 73 72 71 71 72 74 74 75 74 73 74 74 73 73 74 72 72 74 73 72 71 70 73 75 76 76 75 75 73 73 75 75 75 74 74 73 73 73 73 72 72 73 72 73 72 73 70 70 70 69 71 72 72 72 72 71 72 73 73 70 69 67 67 68 68 68 68 70 71 72 70 68 68 68 66 63 61
73 74 74 73 71 70 70 71 71 69 70 70 74 73 73 73 74 72 72 74 74 74 74 74 72 72 71 71 69 74 76 76 76 76 75 74 74 73 74 75 75 75 74 74 73 73 73 73 70 70 68 68 66 68 68 68 70 73 71 73 72 71 72 72 72 72 73 71 69 71 70 69 67 68 70 69 68 71 71 72 71 68 67 64 62
74 75 74 73 72 71 70 70 70 68 68 68 70 68 67 68 72 73 74 75 75 75 74 75 75 72 72 72 72 73 75 75 76 76 76 75 75 74 74 74 75 75 73 73 73 73 72 71 70 70 68 70 69 69 68 66 67 70 70 71 71 71 71 70 69 72 76 74 73 72 71 72 72 71 71 70 69 70 70 71 67 67 65 64 63
74 72 72 73 74 72 71 71 70 69 69 67 64 65 66 65 69 72 72 72 72 73 73 73 73 72 72 71 71 69 71 72 72 73 76 75 73 73 72 72 73 73 74 74 74 73 73 72 71 71 70 70 70 71 67 66 69 70 71 71 72 72 71 70 70 70 72 74 73 71 70 71 71 71 72 71 70 70 69 68 66 65 64 64 63
73 73 74 73 73 73 73 73 72 72 71 66 63 63 64 64 65 70 71 72 72 72 72 73 73 73 73 73 72 71 69 72 73 73 75 75 76 73 72 72 72 71 68 68 70 74 72 73 72 72 71 71 71 72 71 71 73 71 71 70 72 71 72 72 71 70 72 74 73 71 69 70 71 71 70 70 71 71 71 68 67 66 65 64 63
73 73 73 73 73 73 73 73 74 73 70 65 62 62 62 62 64 67 73 73 72 72 73 73 72 73 74 74 73 73 73 74 75 74 74 74 74 75 75 75 74 74 74 69 68 68 71 72 72 72 73 74 73 73 74 74 73 72 71 70 71 70 71 71 73 72 73 71 71 70 70 70 70 70 71 72 71 72 74 70 67 66 65 64 63
71 71 71 71 71 72 72 72 73 70 66 63 61 61 61 62 63 67 74 74 73 73 73 73 74 73 73 73 73 73 74 74 75 74 73 73 74 74 74 73 73 73 74 72 71 70 71 69 70 72 72 73 73 74 74 75 74 74 73 73 72 72 72 72 72 73 72 73 72 71 70 70 71 71 71 71 70 72 73 69 67 66 65 63 63
72 72 71 69 69 69 70 71 71 71 68 61 61 61 61 62 66 73 74 74 73 72 73 73 73 73 73 73 74 74 74 74 74 70 71 73 73 73 73 73 73 72 71 74 68 68 71 71 71 71 70 70 67 73 74 71 72 74 73 72 72 72 72 71 71 69 69 70 73 71 70 71 72 69 71 71 72 72 73 73 68 67 66 64 63
69 70 70 68 69 67 67 69 70 70 70 65 60 59 59 60 69 73 74 73 74 74 73 73 73 73 73 73 73 72 73 74 66 61 64 69 72 72 73 72 71 70 70 70 68 64 64 63 63 64 63 63 63 62 62 62 68 69 70 69 69 68 69 69 70 69 68 70 69 72 70 70 71 72 71 71 72 72 72 72 73 66 64 62 61
68 68 69 69 69 68 67 67 68 69 69 64 58 57 57 57 67 73 73 72 73 73 73 73 74 74 73 71 72 73 72 72 60 59 61 70 73 72 72 71 71 71 71 70 69 69 64 62 62 61 61 61 62 62 62 62 62 65 70 69 68 68 69 69 68 69 71 72 71 71 72 70 71 72 71 72 73 71 71 73 73 71 61 60 59
67 68 68 68 68 69 68 68 69 68 67 63 57 57 57 57 67 72 72 71 71 71 71 71 72 72 73 73 73 71 71 64 56 57 59 68 72 72 72 70 69 70 71 71 71 71 72 72 73 75 73 68 70 71 71 67 65 68 68 69 68 68 70 69 69 70 70 70 71 74 72 71 72 71 71 70 69 71 72 72 73 74 74 74 74